Location: ??
(34.9170°N, 135.5016°E)
Time: 12:30:14
(UTC+00:00)

ADEOS Rocket - Pass Details

Date: 29 October 2020
Orbit: 859 x 1306 km, 98.7° (Epoch: 26 November)

Event Time Altitude Azimuth Distance (km) Brightness Sun altitude
Rises 19:49:35 0° 189° (S) 3,455 5.8 -18.4°
Reaches altitude 10° 19:52:11 10° 199° (SSW) 2,498 5.0 -17.9°
Maximum altitude 19:57:05 33° 263° (W) 1,398 3.3 -16.9°
Drops below altitude 10° 20:02:03 10° 327° (NNW) 2,527 4.8 -15.9°
Sets 20:04:43 0° 337° (NNW) 3,501 5.6 -15.3°
